Time,TemperatureF,DewpointF,PressureIn,WindDirection,WindDirectionDegrees,WindSpeedMPH,WindSpeedGustMPH,Humidity,HourlyPrecipIn,Conditions,Clouds,dailyrainin,SoftwareType,DateUTC
2013-08-02 00:00:00,66.7,66.7,29.97,ESE,120,0.0,1.0,100,0.00,,OVC055,0.32,VWS V14.01,2013-08-02 04:00:00,
2013-08-02 00:01:00,66.7,66.7,29.97,ESE,120,0.0,0.0,100,0.00,,OVC055,0.00,VWS V14.01,2013-08-02 04:01:00,
2013-08-02 00:06:00,66.7,66.7,29.97,ESE,120,1.0,1.0,100,0.00,,OVC055,0.00,VWS V14.01,2013-08-02 04:06:00,
2013-08-02 00:11:00,66.7,66.7,29.97,ESE,120,0.0,1.0,100,0.00,,OVC055,0.00,VWS V14.01,2013-08-02 04:11:00,
2013-08-02 00:15:00,66.7,66.7,29.97,ESE,120,0.0,1.0,100,0.00,,OVC055,0.00,VWS V14.01,2013-08-02 04:15:00,
2013-08-02 00:16:00,66.7,66.7,29.97,ESE,120,0.0,1.0,100,0.00,,OVC055,0.00,VWS V14.01,2013-08-02 04:16:00,
2013-08-02 00:21:00,66.7,66.7,29.97,ESE,120,0.0,1.0,100,0.00,,OVC055,0.00,VWS V14.01,2013-08-02 04:21:00,
2013-08-02 00:26:00,66.7,66.7,29.97,ESE,120,0.0,1.0,100,0.00,,OVC055,0.00,VWS V14.01,2013-08-02 04:26:00,
2013-08-02 00:30:00,66.6,66.6,29.97,ESE,120,0.0,1.0,100,0.00,,OVC055,0.00,VWS V14.01,2013-08-02 04:30:00,
2013-08-02 00:31:00,66.6,66.6,29.98,ESE,120,0.0,0.0,100,0.00,,OVC055,0.00,VWS V14.01,2013-08-02 04:31:00,
2013-08-02 00:36:00,66.6,66.6,29.98,ESE,120,0.0,0.0,100,0.00,,OVC055,0.00,VWS V14.01,2013-08-02 04:36:00,
2013-08-02 00:41:00,66.5,66.5,29.97,ESE,120,0.0,0.0,100,0.00,,OVC055,0.00,VWS V14.01,2013-08-02 04:41:00,
2013-08-02 00:46:00,66.6,66.6,29.97,ESE,120,0.0,0.0,100,0.00,,OVC055,0.00,VWS V14.01,2013-08-02 04:46:00,
2013-08-02 00:51:00,66.6,66.6,29.97,ESE,120,0.0,0.0,100,0.00,,OVC055,0.00,VWS V14.01,2013-08-02 04:51:00,
2013-08-02 00:56:00,66.6,66.6,29.97,ESE,120,0.0,0.0,100,0.00,,OVC055,0.00,VWS V14.01,2013-08-02 04:56:00,
2013-08-02 01:00:00,66.6,66.6,29.97,ESE,120,0.0,0.0,100,0.00,,OVC055,0.00,VWS V14.01,2013-08-02 05:00:00,
2013-08-02 01:01:00,66.6,66.6,29.97,ESE,120,0.0,0.0,100,0.00,,OVC055,0.00,VWS V14.01,2013-08-02 05:01:00,
2013-08-02 01:05:00,66.6,66.6,29.97,ESE,120,0.0,1.0,100,0.00,,OVC055,0.00,VWS V14.01,2013-08-02 05:05:00,
2013-08-02 01:11:00,66.6,66.6,29.97,ESE,120,1.0,1.0,100,0.00,,OVC055,0.00,VWS V14.01,2013-08-02 05:11:00,
2013-08-02 01:16:00,66.5,66.5,29.97,ESE,120,0.0,1.0,100,0.00,,OVC055,0.00,VWS V14.01,2013-08-02 05:16:00,
2013-08-02 01:21:00,66.4,66.4,29.97,ESE,120,0.0,1.0,100,0.00,,OVC055,0.00,VWS V14.01,2013-08-02 05:21:00,
2013-08-02 01:25:00,66.5,66.5,29.97,ESE,120,2.0,2.0,100,0.00,,OVC055,0.00,VWS V14.01,2013-08-02 05:25:00,
2013-08-02 01:30:00,66.5,66.5,29.97,ESE,120,0.0,2.0,100,0.00,,OVC055,0.00,VWS V14.01,2013-08-02 05:30:00,
2013-08-02 01:31:00,66.5,66.5,29.97,ESE,120,0.0,0.0,100,0.00,,OVC055,0.00,VWS V14.01,2013-08-02 05:31:00,
2013-08-02 01:36:00,66.3,66.3,29.98,North,9,1.0,3.0,100,0.00,,OVC055,0.00,VWS V14.01,2013-08-02 05:36:00,
2013-08-02 01:41:00,66.2,66.2,29.98,North,9,1.0,3.0,100,0.00,,OVC055,0.00,VWS V14.01,2013-08-02 05:41:00,
2013-08-02 01:46:00,66.2,66.2,29.98,North,9,0.0,3.0,100,0.00,,OVC055,0.00,VWS V14.01,2013-08-02 05:46:00,
2013-08-02 01:51:00,66.2,66.2,29.97,North,9,0.0,3.0,100,0.00,,OVC055,0.00,VWS V14.01,2013-08-02 05:51:00,
2013-08-02 01:55:00,66.2,66.2,29.97,North,9,0.0,3.0,100,0.00,,OVC055,0.00,VWS V14.01,2013-08-02 05:55:00,
2013-08-02 02:00:00,66.2,66.2,29.96,North,9,0.0,0.0,100,0.01,,OVC055,0.01,VWS V14.01,2013-08-02 06:00:00,
2013-08-02 02:05:00,66.2,66.2,29.96,North,9,1.0,1.0,100,0.01,,OVC055,0.01,VWS V14.01,2013-08-02 06:05:00,
2013-08-02 02:10:00,66.1,66.1,29.96,North,9,0.0,1.0,100,0.01,,OVC055,0.01,VWS V14.01,2013-08-02 06:10:00,
2013-08-02 02:15:00,66.1,66.1,29.96,North,9,0.0,2.0,100,0.01,,OVC055,0.01,VWS V14.01,2013-08-02 06:15:00,
2013-08-02 02:20:00,66.1,66.1,29.96,North,9,2.0,2.0,100,0.01,,OVC055,0.01,VWS V14.01,2013-08-02 06:20:00,
2013-08-02 02:25:00,66.0,66.0,29.96,North,9,1.0,2.0,100,0.01,,OVC055,0.01,VWS V14.01,2013-08-02 06:25:00,
2013-08-02 02:30:00,65.9,65.9,29.96,North,9,1.0,2.0,100,0.01,,OVC055,0.01,VWS V14.01,2013-08-02 06:30:00,
2013-08-02 02:35:00,65.9,65.9,29.96,North,9,0.0,2.0,100,0.01,,OVC055,0.01,VWS V14.01,2013-08-02 06:35:00,
2013-08-02 02:40:00,65.8,65.8,29.96,North,9,0.0,2.0,100,0.01,,OVC055,0.01,VWS V14.01,2013-08-02 06:40:00,
2013-08-02 02:45:00,65.7,65.7,29.96,North,9,0.0,2.0,100,0.01,,OVC055,0.01,VWS V14.01,2013-08-02 06:45:00,
2013-08-02 02:50:00,65.6,65.6,29.95,North,9,0.0,2.0,100,0.01,,OVC055,0.01,VWS V14.01,2013-08-02 06:50:00,
2013-08-02 02:55:00,65.5,65.5,29.95,North,9,0.0,2.0,100,0.01,,OVC055,0.01,VWS V14.01,2013-08-02 06:55:00,
2013-08-02 03:00:00,65.5,65.5,29.95,North,9,0.0,0.0,100,0.00,,OVC055,0.01,VWS V14.01,2013-08-02 07:00:00,
2013-08-02 03:05:00,65.4,65.4,29.95,North,9,0.0,0.0,100,0.00,,OVC055,0.01,VWS V14.01,2013-08-02 07:05:00,
2013-08-02 03:10:00,65.3,65.3,29.95,North,9,0.0,1.0,100,0.00,,OVC055,0.01,VWS V14.01,2013-08-02 07:10:00,
2013-08-02 03:15:00,65.2,65.2,29.94,North,9,0.0,1.0,100,0.00,,OVC055,0.01,VWS V14.01,2013-08-02 07:15:00,
2013-08-02 03:20:00,65.0,65.0,29.94,North,9,0.0,1.0,100,0.00,,OVC055,0.01,VWS V14.01,2013-08-02 07:20:00,
2013-08-02 03:25:00,64.9,64.9,29.94,North,9,0.0,1.0,100,0.00,,OVC055,0.01,VWS V14.01,2013-08-02 07:25:00,
2013-08-02 03:30:00,64.8,64.8,29.94,North,9,0.0,0.0,100,0.00,,OVC055,0.01,VWS V14.01,2013-08-02 07:30:00,
2013-08-02 03:35:00,64.8,64.8,29.94,North,9,0.0,1.0,100,0.00,,OVC055,0.01,VWS V14.01,2013-08-02 07:35:00,
2013-08-02 03:40:00,64.8,64.8,29.94,North,9,1.0,1.0,100,0.00,,OVC055,0.01,VWS V14.01,2013-08-02 07:40:00,
2013-08-02 03:45:00,64.9,64.9,29.94,North,9,0.0,1.0,100,0.00,,OVC055,0.01,VWS V14.01,2013-08-02 07:45:00,
2013-08-02 03:50:00,64.8,64.8,29.94,North,9,0.0,1.0,100,0.00,,OVC055,0.01,VWS V14.01,2013-08-02 07:50:00,
2013-08-02 03:55:00,64.7,64.7,29.94,North,9,0.0,1.0,100,0.00,,OVC055,0.01,VWS V14.01,2013-08-02 07:55:00,
2013-08-02 04:00:00,64.8,64.8,29.94,North,9,0.0,0.0,100,0.00,,OVC055,0.01,VWS V14.01,2013-08-02 08:00:00,
2013-08-02 04:05:00,64.7,64.7,29.94,North,9,0.0,1.0,100,0.00,,OVC055,0.01,VWS V14.01,2013-08-02 08:05:00,
2013-08-02 04:10:00,64.6,64.6,29.93,North,9,0.0,1.0,100,0.00,,OVC055,0.01,VWS V14.01,2013-08-02 08:10:00,
2013-08-02 04:15:00,64.6,64.6,29.94,North,9,0.0,1.0,100,0.00,,OVC055,0.01,VWS V14.01,2013-08-02 08:15:00,
2013-08-02 04:20:00,64.5,64.5,29.94,North,9,0.0,1.0,100,0.00,,OVC055,0.01,VWS V14.01,2013-08-02 08:20:00,
2013-08-02 04:25:00,64.3,64.3,29.94,North,9,0.0,1.0,100,0.00,,OVC055,0.01,VWS V14.01,2013-08-02 08:25:00,
2013-08-02 04:30:00,64.3,64.3,29.95,North,9,0.0,0.0,100,0.00,,OVC055,0.01,VWS V14.01,2013-08-02 08:30:00,
2013-08-02 04:35:00,64.2,64.2,29.95,North,9,0.0,1.0,100,0.00,,OVC055,0.01,VWS V14.01,2013-08-02 08:35:00,
2013-08-02 04:40:00,64.2,64.2,29.95,North,9,0.0,1.0,100,0.00,,OVC055,0.01,VWS V14.01,2013-08-02 08:40:00,
2013-08-02 04:45:00,64.2,64.2,29.95,North,9,0.0,1.0,100,0.00,,OVC055,0.01,VWS V14.01,2013-08-02 08:45:00,
2013-08-02 04:50:00,64.3,64.3,29.96,North,9,0.0,1.0,100,0.00,,OVC055,0.01,VWS V14.01,2013-08-02 08:50:00,
2013-08-02 04:55:00,64.3,64.3,29.95,North,9,1.0,1.0,100,0.00,,OVC055,0.01,VWS V14.01,2013-08-02 08:55:00,
2013-08-02 05:00:00,64.3,64.3,29.95,North,9,0.0,1.0,100,0.00,,OVC055,0.01,VWS V14.01,2013-08-02 09:00:00,
2013-08-02 05:05:00,64.3,64.3,29.95,North,9,0.0,1.0,100,0.00,,OVC055,0.01,VWS V14.01,2013-08-02 09:05:00,
2013-08-02 05:10:00,64.2,64.2,29.95,North,9,1.0,2.0,100,0.00,,OVC055,0.01,VWS V14.01,2013-08-02 09:10:00,
2013-08-02 05:15:00,64.1,64.1,29.96,North,9,1.0,2.0,100,0.00,,OVC055,0.01,VWS V14.01,2013-08-02 09:15:00,
2013-08-02 05:20:00,64.0,64.0,29.96,North,9,2.0,2.0,100,0.00,,OVC055,0.01,VWS V14.01,2013-08-02 09:20:00,
2013-08-02 05:25:00,63.9,63.9,29.96,North,9,0.0,2.0,100,0.00,,OVC055,0.01,VWS V14.01,2013-08-02 09:25:00,
2013-08-02 05:30:00,63.8,63.8,29.97,North,9,0.0,0.0,100,0.00,,OVC055,0.01,VWS V14.01,2013-08-02 09:30:00,
2013-08-02 05:35:00,63.8,63.8,29.97,North,9,1.0,1.0,100,0.00,,OVC055,0.01,VWS V14.01,2013-08-02 09:35:00,
2013-08-02 05:40:00,63.8,63.8,29.97,North,9,0.0,1.0,100,0.00,,OVC055,0.01,VWS V14.01,2013-08-02 09:40:00,
2013-08-02 05:45:00,63.8,63.8,29.97,North,9,0.0,1.0,100,0.00,,OVC055,0.01,VWS V14.01,2013-08-02 09:45:00,
2013-08-02 05:50:00,63.8,63.8,29.97,North,9,0.0,1.0,100,0.00,,OVC055,0.01,VWS V14.01,2013-08-02 09:50:00,
2013-08-02 05:55:00,63.8,63.8,29.97,North,9,0.0,1.0,100,0.00,,OVC055,0.01,VWS V14.01,2013-08-02 09:55:00,
2013-08-02 06:00:00,63.9,63.9,29.97,North,9,1.0,1.0,100,0.00,,OVC055,0.01,VWS V14.01,2013-08-02 10:00:00,
2013-08-02 06:05:00,63.9,63.9,29.97,North,9,0.0,1.0,100,0.00,,OVC055,0.01,VWS V14.01,2013-08-02 10:05:00,
2013-08-02 06:10:00,63.8,63.8,29.97,North,9,0.0,1.0,100,0.00,,OVC055,0.01,VWS V14.01,2013-08-02 10:10:00,
2013-08-02 06:15:00,63.8,63.8,29.98,North,9,0.0,1.0,100,0.00,,OVC055,0.01,VWS V14.01,2013-08-02 10:15:00,
2013-08-02 06:20:00,63.7,63.7,29.98,North,9,1.0,2.0,100,0.00,,OVC055,0.01,VWS V14.01,2013-08-02 10:20:00,
2013-08-02 06:25:00,63.6,63.6,29.98,North,9,1.0,2.0,100,0.00,,OVC055,0.01,VWS V14.01,2013-08-02 10:25:00,
2013-08-02 06:30:00,63.5,63.5,29.98,North,9,0.0,1.0,100,0.00,,OVC055,0.01,VWS V14.01,2013-08-02 10:30:00,
2013-08-02 06:35:00,63.5,63.5,29.98,North,9,0.0,1.0,100,0.00,,OVC055,0.01,VWS V14.01,2013-08-02 10:35:00,
2013-08-02 06:40:00,63.3,63.3,29.98,North,9,0.0,1.0,100,0.00,,OVC055,0.01,VWS V14.01,2013-08-02 10:40:00,
2013-08-02 06:45:00,63.3,63.3,29.98,North,9,0.0,1.0,100,0.00,,OVC055,0.01,VWS V14.01,2013-08-02 10:45:00,
2013-08-02 06:50:00,63.3,63.3,29.98,North,9,0.0,1.0,100,0.00,,OVC055,0.01,VWS V14.01,2013-08-02 10:50:00,
2013-08-02 06:55:00,63.4,63.4,29.98,North,9,0.0,1.0,100,0.00,,OVC055,0.01,VWS V14.01,2013-08-02 10:55:00,
2013-08-02 07:00:00,63.5,63.5,29.98,North,9,1.0,2.0,100,0.00,,OVC055,0.01,VWS V14.01,2013-08-02 11:00:00,
2013-08-02 07:05:00,63.4,63.4,29.99,North,9,1.0,2.0,100,0.00,,OVC055,0.01,VWS V14.01,2013-08-02 11:05:00,
2013-08-02 07:10:00,63.2,63.2,29.99,North,9,1.0,3.0,100,0.00,,OVC055,0.01,VWS V14.01,2013-08-02 11:10:00,
2013-08-02 07:15:00,63.1,63.1,30.00,North,9,1.0,3.0,100,0.00,,OVC055,0.01,VWS V14.01,2013-08-02 11:15:00,
2013-08-02 07:20:00,63.0,63.0,30.00,North,9,2.0,3.0,100,0.00,,OVC055,0.01,VWS V14.01,2013-08-02 11:20:00,
2013-08-02 07:25:00,62.9,62.9,30.00,North,9,0.0,3.0,100,0.00,,OVC055,0.01,VWS V14.01,2013-08-02 11:25:00,
2013-08-02 07:30:00,62.9,62.9,30.00,North,9,1.0,1.0,100,0.00,,OVC055,0.01,VWS V14.01,2013-08-02 11:30:00,
2013-08-02 07:35:00,62.7,62.7,30.01,North,9,1.0,2.0,100,0.00,,OVC055,0.01,VWS V14.01,2013-08-02 11:35:00,
2013-08-02 07:40:00,62.7,62.7,30.01,North,9,0.0,2.0,100,0.00,,OVC055,0.01,VWS V14.01,2013-08-02 11:40:00,
2013-08-02 07:45:00,62.7,62.7,30.01,NE,56,0.0,2.0,100,0.00,,OVC055,0.01,VWS V14.01,2013-08-02 11:45:00,
2013-08-02 07:50:00,62.7,62.7,30.01,NE,56,0.0,2.0,100,0.00,,OVC055,0.01,VWS V14.01,2013-08-02 11:50:00,
2013-08-02 07:55:00,62.7,62.7,30.01,NE,56,0.0,2.0,100,0.00,,OVC055,0.01,VWS V14.01,2013-08-02 11:55:00,
2013-08-02 08:00:00,62.9,62.9,30.00,NE,56,0.0,0.0,100,0.00,,OVC055,0.01,VWS V14.01,2013-08-02 12:00:00,
2013-08-02 08:05:00,63.0,63.0,30.01,NE,56,0.0,1.0,100,0.00,,OVC055,0.01,VWS V14.01,2013-08-02 12:05:00,
2013-08-02 08:10:00,63.0,63.0,30.01,NE,56,1.0,1.0,100,0.00,,OVC055,0.01,VWS V14.01,2013-08-02 12:10:00,
2013-08-02 08:15:00,63.1,63.1,30.01,NE,56,0.0,1.0,100,0.00,,OVC055,0.01,VWS V14.01,2013-08-02 12:15:00,
2013-08-02 08:20:00,63.2,63.2,30.01,NE,56,0.0,1.0,100,0.00,,OVC055,0.01,VWS V14.01,2013-08-02 12:20:00,
2013-08-02 08:25:00,63.1,63.1,30.01,NE,56,0.0,1.0,100,0.00,,OVC055,0.01,VWS V14.01,2013-08-02 12:25:00,
2013-08-02 08:30:00,63.2,63.2,30.01,NE,56,0.0,1.0,100,0.00,,OVC055,0.01,VWS V14.01,2013-08-02 12:30:00,
2013-08-02 08:35:00,63.3,63.3,30.01,NE,56,0.0,1.0,100,0.00,,OVC055,0.01,VWS V14.01,2013-08-02 12:35:00,
2013-08-02 08:40:00,63.4,63.4,30.01,NE,56,0.0,1.0,100,0.00,,OVC055,0.01,VWS V14.01,2013-08-02 12:40:00,
2013-08-02 08:45:00,63.5,63.5,30.01,NE,56,0.0,1.0,100,0.00,,OVC055,0.01,VWS V14.01,2013-08-02 12:45:00,
2013-08-02 08:50:00,63.8,63.8,30.01,NE,56,0.0,2.0,100,0.00,,OVC055,0.01,VWS V14.01,2013-08-02 12:50:00,
2013-08-02 08:55:00,63.9,63.9,30.01,NE,56,0.0,2.0,100,0.00,,OVC055,0.01,VWS V14.01,2013-08-02 12:55:00,
2013-08-02 09:00:00,64.2,64.2,30.01,NE,56,0.0,1.0,100,0.00,,OVC055,0.01,VWS V14.01,2013-08-02 13:00:00,
2013-08-02 09:05:00,64.7,64.7,30.01,NE,56,0.0,1.0,100,0.00,,OVC055,0.01,VWS V14.01,2013-08-02 13:05:00,
2013-08-02 09:10:00,65.2,65.2,30.01,NE,56,2.0,2.0,100,0.00,,OVC055,0.01,VWS V14.01,2013-08-02 13:10:00,
2013-08-02 09:15:00,65.4,65.4,30.01,NE,56,2.0,3.0,100,0.00,,OVC055,0.01,VWS V14.01,2013-08-02 13:15:00,
2013-08-02 09:20:00,66.1,66.1,30.02,NE,56,0.0,3.0,100,0.00,,OVC055,0.01,VWS V14.01,2013-08-02 13:20:00,
2013-08-02 09:25:00,66.3,66.3,30.02,NE,52,0.0,3.0,100,0.00,,OVC055,0.01,VWS V14.01,2013-08-02 13:25:00,
2013-08-02 09:30:00,66.3,66.0,30.03,NE,52,1.0,2.0,99,0.00,,OVC055,0.01,VWS V14.01,2013-08-02 13:30:00,
2013-08-02 09:35:00,66.4,66.1,30.03,NE,52,0.0,2.0,99,0.00,,OVC055,0.01,VWS V14.01,2013-08-02 13:35:00,
2013-08-02 09:40:00,66.9,66.6,30.02,NE,52,0.0,2.0,99,0.00,,OVC055,0.01,VWS V14.01,2013-08-02 13:40:00,
2013-08-02 09:45:00,67.5,66.9,30.02,NE,51,0.0,2.0,98,0.00,,OVC055,0.01,VWS V14.01,2013-08-02 13:45:00,
2013-08-02 09:50:00,67.9,67.0,30.02,NE,51,3.0,3.0,97,0.00,,OVC055,0.01,VWS V14.01,2013-08-02 13:50:00,
2013-08-02 09:54:00,68.2,66.7,30.02,NE,51,2.0,3.0,95,0.00,,OVC055,0.01,VWS V14.01,2013-08-02 13:54:00,
2013-08-02 09:55:00,68.2,66.7,30.02,NE,51,1.0,3.0,95,0.00,,OVC055,0.01,VWS V14.01,2013-08-02 13:55:00,
2013-08-02 10:00:00,68.6,67.4,30.02,NE,51,0.0,2.0,96,0.00,,OVC055,0.01,VWS V14.01,2013-08-02 14:00:00,
2013-08-02 10:05:00,69.4,67.9,30.02,NE,52,0.0,2.0,95,0.00,,OVC055,0.01,VWS V14.01,2013-08-02 14:05:00,
2013-08-02 10:10:00,70.3,67.9,30.02,NE,51,1.0,2.0,92,0.00,,OVC055,0.01,VWS V14.01,2013-08-02 14:10:00,
2013-08-02 10:15:00,71.0,68.9,30.02,NE,52,1.0,2.0,93,0.00,,OVC055,0.01,VWS V14.01,2013-08-02 14:15:00,
2013-08-02 10:20:00,71.6,68.8,30.02,NE,52,0.0,2.0,91,0.00,,OVC055,0.01,VWS V14.01,2013-08-02 14:20:00,
2013-08-02 10:25:00,72.5,69.4,30.03,NE,50,1.0,2.0,90,0.00,,OVC055,0.01,VWS V14.01,2013-08-02 14:25:00,
2013-08-02 10:30:00,72.9,68.8,30.03,NNW,344,1.0,1.0,87,0.00,,OVC055,0.01,VWS V14.01,2013-08-02 14:30:00,
2013-08-02 10:35:00,73.1,68.3,30.03,North,360,3.0,5.0,85,0.00,,OVC055,0.01,VWS V14.01,2013-08-02 14:35:00,
2013-08-02 10:40:00,73.2,68.8,30.03,NNE,19,3.0,6.0,86,0.00,,OVC055,0.01,VWS V14.01,2013-08-02 14:40:00,
2013-08-02 10:45:00,73.3,68.5,30.03,NNE,14,1.0,6.0,85,0.00,,OVC055,0.01,VWS V14.01,2013-08-02 14:45:00,
2013-08-02 10:50:00,73.3,68.9,30.03,NNE,14,0.0,6.0,86,0.00,,OVC055,0.01,VWS V14.01,2013-08-02 14:50:00,
2013-08-02 10:55:00,73.7,68.6,30.03,NNE,13,1.0,6.0,84,0.00,,OVC055,0.01,VWS V14.01,2013-08-02 14:55:00,
2013-08-02 11:00:00,74.5,68.7,30.03,NNE,17,1.0,4.0,82,0.00,,OVC055,0.01,VWS V14.01,2013-08-02 15:00:00,
2013-08-02 11:05:00,75.2,70.0,30.03,NNE,17,0.0,4.0,84,0.00,,OVC055,0.01,VWS V14.01,2013-08-02 15:05:00,
2013-08-02 11:10:00,76.0,71.2,30.03,NNE,14,0.0,4.0,85,0.00,,OVC055,0.01,VWS V14.01,2013-08-02 15:10:00,
2013-08-02 11:15:00,76.3,70.4,30.02,NNE,14,0.0,4.0,82,0.00,,OVC055,0.01,VWS V14.01,2013-08-02 15:15:00,
2013-08-02 11:20:00,76.9,71.3,30.02,NNE,14,0.0,4.0,83,0.00,,OVC055,0.01,VWS V14.01,2013-08-02 15:20:00,
2013-08-02 11:25:00,77.1,71.5,30.03,NNE,14,1.0,4.0,83,0.00,,OVC055,0.01,VWS V14.01,2013-08-02 15:25:00,
2013-08-02 11:30:00,77.5,71.9,30.02,NNE,14,2.0,2.0,83,0.00,,OVC055,0.01,VWS V14.01,2013-08-02 15:30:00,
2013-08-02 11:35:00,77.6,69.4,30.02,NNE,13,3.0,4.0,76,0.00,,OVC055,0.01,VWS V14.01,2013-08-02 15:35:00,
2013-08-02 11:40:00,77.5,69.3,30.02,NNE,13,3.0,4.0,76,0.00,,OVC055,0.01,VWS V14.01,2013-08-02 15:40:00,
2013-08-02 11:45:00,77.5,70.1,30.02,NNE,13,3.0,4.0,78,0.00,,OVC055,0.01,VWS V14.01,2013-08-02 15:45:00,
2013-08-02 11:50:00,78.1,72.2,30.02,NNE,13,0.0,4.0,82,0.00,,OVC055,0.01,VWS V14.01,2013-08-02 15:50:00,
2013-08-02 11:55:00,78.1,71.4,30.02,NNE,13,0.0,4.0,80,0.00,,OVC055,0.01,VWS V14.01,2013-08-02 15:55:00,
2013-08-02 12:00:00,78.7,72.0,30.02,NNE,13,0.0,1.0,80,0.00,,OVC055,0.01,VWS V14.01,2013-08-02 16:00:00,
2013-08-02 12:05:00,79.0,73.0,30.02,NNE,13,0.0,1.0,82,0.00,,OVC055,0.01,VWS V14.01,2013-08-02 16:05:00,
2013-08-02 12:10:00,78.8,72.5,30.02,NE,43,2.0,2.0,81,0.00,,OVC055,0.01,VWS V14.01,2013-08-02 16:10:00,
2013-08-02 12:15:00,78.8,69.8,30.02,NE,48,0.0,2.0,74,0.00,,OVC055,0.01,VWS V14.01,2013-08-02 16:15:00,
2013-08-02 12:20:00,79.5,70.5,30.02,NE,48,2.0,2.0,74,0.00,,OVC055,0.01,VWS V14.01,2013-08-02 16:20:00,
2013-08-02 12:25:00,80.0,72.5,30.02,NNW,339,0.0,3.0,78,0.00,,OVC055,0.01,VWS V14.01,2013-08-02 16:25:00,
2013-08-02 12:30:00,79.9,72.4,30.02,NNW,346,0.0,3.0,78,0.00,,OVC055,0.01,VWS V14.01,2013-08-02 16:30:00,
2013-08-02 12:35:00,80.0,72.2,30.02,NNW,342,1.0,3.0,77,0.00,,OVC055,0.01,VWS V14.01,2013-08-02 16:35:00,
2013-08-02 12:40:00,80.6,73.1,30.02,NNW,343,2.0,3.0,78,0.00,,OVC055,0.01,VWS V14.01,2013-08-02 16:40:00,
2013-08-02 12:45:00,80.8,71.7,30.02,North,11,2.0,3.0,74,0.00,,OVC055,0.01,VWS V14.01,2013-08-02 16:45:00,
2013-08-02 12:50:00,79.9,72.1,30.02,NNE,19,0.0,3.0,77,0.00,,OVC055,0.01,VWS V14.01,2013-08-02 16:50:00,
2013-08-02 12:55:00,79.1,70.1,30.02,South,169,0.0,3.0,74,0.00,,OVC055,0.01,VWS V14.01,2013-08-02 16:55:00,
2013-08-02 13:00:00,78.3,71.6,30.02,South,169,0.0,0.0,80,0.00,,OVC055,0.01,VWS V14.01,2013-08-02 17:00:00,
2013-08-02 13:05:00,77.6,72.0,30.02,SSW,200,0.0,2.0,83,0.00,,OVC055,0.01,VWS V14.01,2013-08-02 17:05:00,
2013-08-02 13:10:00,77.6,72.4,30.02,WNW,295,0.0,4.0,84,0.00,,OVC055,0.01,VWS V14.01,2013-08-02 17:10:00,
2013-08-02 13:15:00,78.0,70.2,30.02,ENE,59,1.0,4.0,77,0.00,,OVC055,0.01,VWS V14.01,2013-08-02 17:15:00,
2013-08-02 13:20:00,78.7,71.3,30.01,SE,136,0.0,4.0,78,0.00,,OVC055,0.01,VWS V14.01,2013-08-02 17:20:00,
2013-08-02 13:25:00,78.8,70.6,30.01,South,180,0.0,4.0,76,0.00,,OVC055,0.01,VWS V14.01,2013-08-02 17:25:00,
2013-08-02 13:30:00,78.6,71.9,30.01,South,180,0.0,1.0,80,0.00,,OVC055,0.01,VWS V14.01,2013-08-02 17:30:00,
2013-08-02 13:35:00,78.4,72.1,30.01,West,265,0.0,2.0,81,0.00,,OVC055,0.01,VWS V14.01,2013-08-02 17:35:00,
2013-08-02 13:40:00,78.8,71.4,30.01,North,360,1.0,3.0,78,0.00,,OVC055,0.01,VWS V14.01,2013-08-02 17:40:00,
2013-08-02 13:45:00,80.0,72.2,30.01,North,5,1.0,4.0,77,0.00,,OVC055,0.01,VWS V14.01,2013-08-02 17:45:00,
2013-08-02 13:50:00,80.7,72.4,30.01,NNW,342,0.0,4.0,76,0.00,,OVC055,0.01,VWS V14.01,2013-08-02 17:50:00,
2013-08-02 13:55:00,80.9,72.6,30.01,ENE,60,0.0,4.0,76,0.00,,OVC055,0.01,VWS V14.01,2013-08-02 17:55:00,
2013-08-02 14:00:00,81.3,73.4,30.01,WNW,287,1.0,2.0,77,0.00,,OVC055,0.01,VWS V14.01,2013-08-02 18:00:00,
2013-08-02 14:05:00,82.3,72.8,30.01,WNW,298,1.0,2.0,73,0.00,,OVC055,0.01,VWS V14.01,2013-08-02 18:05:00,
2013-08-02 14:10:00,82.3,74.0,30.01,SSW,197,2.0,3.0,76,0.00,,OVC055,0.01,VWS V14.01,2013-08-02 18:10:00,
2013-08-02 14:15:00,81.9,74.0,30.01,WNW,289,2.0,3.0,77,0.00,,OVC055,0.01,VWS V14.01,2013-08-02 18:15:00,
2013-08-02 14:20:00,81.3,73.0,30.01,NNE,28,0.0,3.0,76,0.00,,OVC055,0.01,VWS V14.01,2013-08-02 18:20:00,
2013-08-02 14:25:00,80.8,71.7,30.01,North,360,1.0,3.0,74,0.00,,OVC055,0.01,VWS V14.01,2013-08-02 18:25:00,
2013-08-02 14:30:00,81.1,73.2,30.00,North,5,1.0,1.0,77,0.00,,OVC055,0.01,VWS V14.01,2013-08-02 18:30:00,
2013-08-02 14:35:00,81.3,72.6,30.00,NE,44,0.0,5.0,75,0.00,,OVC055,0.01,VWS V14.01,2013-08-02 18:35:00,
2013-08-02 14:39:00,81.6,73.3,30.00,NW,311,3.0,5.0,76,0.00,,OVC055,0.01,VWS V14.01,2013-08-02 18:39:00,
2013-08-02 14:44:00,81.8,72.3,30.00,North,5,2.0,5.0,73,0.00,,OVC055,0.01,VWS V14.01,2013-08-02 18:44:00,
2013-08-02 14:50:00,82.1,71.8,30.00,SE,139,0.0,6.0,71,0.00,,OVC055,0.01,VWS V14.01,2013-08-02 18:50:00,
2013-08-02 14:55:00,82.6,71.8,30.00,WNW,289,1.0,6.0,70,0.00,,OVC055,0.01,VWS V14.01,2013-08-02 18:55:00,
2013-08-02 15:00:00,82.9,72.9,30.00,East,101,1.0,2.0,72,0.00,,OVC055,0.01,VWS V14.01,2013-08-02 19:00:00,
2013-08-02 15:05:00,83.1,73.6,30.00,North,355,0.0,5.0,73,0.00,,OVC055,0.01,VWS V14.01,2013-08-02 19:05:00,
2013-08-02 15:09:00,83.3,74.2,30.00,North,9,1.0,5.0,74,0.00,,OVC055,0.01,VWS V14.01,2013-08-02 19:09:00,
2013-08-02 15:14:00,82.9,72.9,29.99,NE,53,2.0,5.0,72,0.00,,OVC055,0.01,VWS V14.01,2013-08-02 19:14:00,
2013-08-02 15:19:00,82.4,72.5,30.00,SE,142,1.0,5.0,72,0.00,,OVC055,0.01,VWS V14.01,2013-08-02 19:19:00,
2013-08-02 15:24:00,82.8,73.7,29.99,NW,314,1.0,5.0,74,0.00,,OVC055,0.01,VWS V14.01,2013-08-02 19:24:00,
2013-08-02 15:29:00,83.0,73.5,29.99,East,84,1.0,1.0,73,0.00,,OVC055,0.01,VWS V14.01,2013-08-02 19:29:00,
2013-08-02 15:30:00,82.9,71.7,29.99,NNW,331,1.0,5.0,69,0.00,,OVC055,0.01,VWS V14.01,2013-08-02 19:30:00,
2013-08-02 15:34:00,83.3,73.3,29.99,SE,126,1.0,3.0,72,0.00,,OVC055,0.01,VWS V14.01,2013-08-02 19:34:00,
2013-08-02 15:39:00,83.4,73.4,29.99,ESE,112,2.0,3.0,72,0.00,,OVC055,0.01,VWS V14.01,2013-08-02 19:39:00,
2013-08-02 15:44:00,82.5,71.3,29.99,NW,325,0.0,5.0,69,0.00,,OVC055,0.01,VWS V14.01,2013-08-02 19:44:00,
2013-08-02 15:49:00,82.4,72.5,29.99,WNW,296,1.0,5.0,72,0.00,,OVC055,0.01,VWS V14.01,2013-08-02 19:49:00,
2013-08-02 15:54:00,82.7,72.3,29.99,NE,53,0.0,5.0,71,0.00,,OVC055,0.01,VWS V14.01,2013-08-02 19:54:00,
2013-08-02 15:59:00,83.3,71.2,29.99,SSW,192,2.0,4.0,67,0.00,,OVC055,0.01,VWS V14.01,2013-08-02 19:59:00,
2013-08-02 16:00:00,83.3,73.3,29.99,WSW,252,4.0,5.0,72,0.00,,OVC055,0.01,VWS V14.01,2013-08-02 20:00:00,
2013-08-02 16:04:00,83.0,72.6,29.99,ESE,117,1.0,4.0,71,0.00,,OVC055,0.01,VWS V14.01,2013-08-02 20:04:00,
2013-08-02 16:09:00,82.7,73.2,29.99,North,355,2.0,4.0,73,0.00,,OVC055,0.01,VWS V14.01,2013-08-02 20:09:00,
2013-08-02 16:14:00,82.3,73.2,29.99,NNW,344,1.0,4.0,74,0.00,,OVC055,0.01,VWS V14.01,2013-08-02 20:14:00,
2013-08-02 16:19:00,81.9,73.2,29.99,SSE,150,1.0,4.0,75,0.00,,OVC055,0.01,VWS V14.01,2013-08-02 20:19:00,
2013-08-02 16:24:00,82.2,71.9,29.99,SSW,196,1.0,4.0,71,0.00,,OVC055,0.01,VWS V14.01,2013-08-02 20:24:00,
2013-08-02 16:29:00,82.3,72.4,29.98,SSW,211,0.0,1.0,72,0.00,,OVC055,0.01,VWS V14.01,2013-08-02 20:29:00,
2013-08-02 16:30:00,82.3,73.6,29.99,SSW,211,1.0,4.0,75,0.00,,OVC055,0.01,VWS V14.01,2013-08-02 20:30:00,
2013-08-02 16:34:00,82.3,73.2,29.99,NNW,339,0.0,2.0,74,0.00,,OVC055,0.01,VWS V14.01,2013-08-02 20:34:00,
2013-08-02 16:39:00,81.9,72.8,29.99,SSW,193,2.0,2.0,74,0.00,,OVC055,0.01,VWS V14.01,2013-08-02 20:39:00,
2013-08-02 16:44:00,81.8,72.3,29.99,ESE,119,0.0,3.0,73,0.00,,OVC055,0.01,VWS V14.01,2013-08-02 20:44:00,
2013-08-02 16:49:00,81.8,70.6,29.99,West,264,0.0,3.0,69,0.00,,OVC055,0.01,VWS V14.01,2013-08-02 20:49:00,
2013-08-02 16:54:00,82.0,71.3,29.98,WSW,248,1.0,3.0,70,0.00,,OVC055,0.01,VWS V14.01,2013-08-02 20:54:00,
2013-08-02 16:59:00,82.3,70.3,29.98,West,271,1.0,4.0,67,0.00,,OVC055,0.01,VWS V14.01,2013-08-02 20:59:00,
2013-08-02 17:00:00,82.2,70.6,29.98,East,84,1.0,3.0,68,0.00,,OVC055,0.01,VWS V14.01,2013-08-02 21:00:00,
2013-08-02 17:04:00,82.4,71.6,29.98,SSW,199,1.0,4.0,70,0.00,,OVC055,0.01,VWS V14.01,2013-08-02 21:04:00,
2013-08-02 17:09:00,82.7,70.6,29.98,NNE,19,2.0,4.0,67,0.00,,OVC055,0.01,VWS V14.01,2013-08-02 21:09:00,
2013-08-02 17:14:00,82.7,72.8,29.98,NNE,24,0.0,4.0,72,0.00,,OVC055,0.01,VWS V14.01,2013-08-02 21:14:00,
2013-08-02 17:19:00,82.6,72.7,29.98,NNW,331,3.0,4.0,72,0.00,,OVC055,0.01,VWS V14.01,2013-08-02 21:19:00,
2013-08-02 17:24:00,82.5,73.4,29.98,NNE,17,0.0,4.0,74,0.00,,OVC055,0.01,VWS V14.01,2013-08-02 21:24:00,
2013-08-02 17:29:00,82.1,73.0,29.98,WNW,284,1.0,2.0,74,0.00,,OVC055,0.01,VWS V14.01,2013-08-02 21:29:00,
2013-08-02 17:30:00,82.2,72.7,29.98,WSW,250,0.0,4.0,73,0.00,,OVC055,0.01,VWS V14.01,2013-08-02 21:30:00,
2013-08-02 17:34:00,81.7,73.0,29.98,SW,225,1.0,3.0,75,0.00,,OVC055,0.01,VWS V14.01,2013-08-02 21:34:00,
2013-08-02 17:39:00,81.3,71.0,29.98,West,267,0.0,5.0,71,0.00,,OVC055,0.01,VWS V14.01,2013-08-02 21:39:00,
2013-08-02 17:44:00,81.3,72.2,29.98,South,171,0.0,5.0,74,0.00,,OVC055,0.01,VWS V14.01,2013-08-02 21:44:00,
2013-08-02 17:49:00,81.5,72.4,29.98,SSE,165,1.0,5.0,74,0.00,,OVC055,0.01,VWS V14.01,2013-08-02 21:49:00,
2013-08-02 17:54:00,81.6,72.5,29.98,West,265,0.0,5.0,74,0.00,,OVC055,0.01,VWS V14.01,2013-08-02 21:54:00,
2013-08-02 17:59:00,81.2,71.7,29.98,SW,234,0.0,1.0,73,0.00,,OVC055,0.01,VWS V14.01,2013-08-02 21:59:00,
2013-08-02 18:00:00,81.2,70.9,29.98,SW,234,1.0,5.0,71,0.00,,OVC055,0.01,VWS V14.01,2013-08-02 22:00:00,
2013-08-02 18:04:00,80.7,72.0,29.97,SSE,149,0.0,2.0,75,0.00,,OVC055,0.01,VWS V14.01,2013-08-02 22:04:00,
2013-08-02 18:09:00,80.3,72.1,29.97,SSE,149,0.0,2.0,76,0.00,,OVC055,0.01,VWS V14.01,2013-08-02 22:09:00,
2013-08-02 18:14:00,79.7,70.7,29.98,SE,140,2.0,5.0,74,0.00,,OVC055,0.01,VWS V14.01,2013-08-02 22:14:00,
2013-08-02 18:19:00,79.3,71.5,29.98,SE,140,0.0,5.0,77,0.00,,OVC055,0.01,VWS V14.01,2013-08-02 22:19:00,
2013-08-02 18:24:00,78.8,71.0,29.98,SE,140,1.0,5.0,77,0.00,,OVC055,0.01,VWS V14.01,2013-08-02 22:24:00,
2013-08-02 18:29:00,78.5,71.1,29.98,ESE,106,0.0,2.0,78,0.00,,OVC055,0.01,VWS V14.01,2013-08-02 22:29:00,
2013-08-02 18:30:00,78.6,70.4,29.98,ESE,106,2.0,5.0,76,0.00,,OVC055,0.01,VWS V14.01,2013-08-02 22:30:00,
2013-08-02 18:34:00,78.0,71.3,29.97,ESE,106,1.0,2.0,80,0.00,,OVC055,0.01,VWS V14.01,2013-08-02 22:34:00,
2013-08-02 18:39:00,77.2,71.3,29.97,ESE,106,0.0,2.0,82,0.00,,OVC055,0.01,VWS V14.01,2013-08-02 22:39:00,
2013-08-02 18:44:00,76.5,71.7,29.98,ESE,106,0.0,2.0,85,0.00,,OVC055,0.01,VWS V14.01,2013-08-02 22:44:00,
2013-08-02 18:49:00,75.9,71.4,29.98,ESE,106,0.0,2.0,86,0.00,,OVC055,0.01,VWS V14.01,2013-08-02 22:49:00,
2013-08-02 18:54:00,75.3,71.2,29.98,ESE,106,0.0,2.0,87,0.00,,OVC055,0.01,VWS V14.01,2013-08-02 22:54:00,
2013-08-02 18:59:00,75.1,71.3,29.97,ESE,106,0.0,0.0,88,0.00,,OVC055,0.01,VWS V14.01,2013-08-02 22:59:00,
2013-08-02 19:00:00,75.1,71.3,29.97,ESE,106,0.0,2.0,88,0.00,,OVC055,0.01,VWS V14.01,2013-08-02 23:00:00,
2013-08-02 19:04:00,74.9,71.4,29.98,ESE,106,0.0,0.0,89,0.00,,OVC055,0.01,VWS V14.01,2013-08-02 23:04:00,
2013-08-02 19:09:00,74.7,70.9,29.98,ESE,106,0.0,1.0,88,0.00,,OVC055,0.01,VWS V14.01,2013-08-02 23:09:00,
2013-08-02 19:14:00,74.5,70.7,29.98,ESE,106,0.0,1.0,88,0.00,,OVC055,0.01,VWS V14.01,2013-08-02 23:14:00,
2013-08-02 19:19:00,74.3,70.2,29.98,ESE,106,0.0,1.0,87,0.00,,OVC055,0.01,VWS V14.01,2013-08-02 23:19:00,
2013-08-02 19:24:00,74.3,70.2,29.98,ESE,106,0.0,1.0,87,0.00,,OVC055,0.01,VWS V14.01,2013-08-02 23:24:00,
2013-08-02 19:29:00,74.2,70.4,29.98,ESE,106,0.0,0.0,88,0.00,,OVC055,0.01,VWS V14.01,2013-08-02 23:29:00,
2013-08-02 19:30:00,74.2,70.4,29.98,ESE,106,0.0,1.0,88,0.00,,OVC055,0.01,VWS V14.01,2013-08-02 23:30:00,
2013-08-02 19:34:00,74.0,70.2,29.98,ESE,106,0.0,0.0,88,0.00,,OVC055,0.01,VWS V14.01,2013-08-02 23:34:00,
2013-08-02 19:39:00,73.7,70.3,29.98,ESE,106,0.0,1.0,89,0.00,,OVC055,0.01,VWS V14.01,2013-08-02 23:39:00,
2013-08-02 19:44:00,73.6,70.8,29.99,ESE,106,0.0,1.0,91,0.00,,OVC055,0.01,VWS V14.01,2013-08-02 23:44:00,
2013-08-02 19:49:00,73.5,71.0,29.99,ESE,106,0.0,1.0,92,0.00,,OVC055,0.01,VWS V14.01,2013-08-02 23:49:00,
2013-08-02 19:54:00,73.5,71.0,29.99,ESE,106,0.0,1.0,92,0.00,,OVC055,0.01,VWS V14.01,2013-08-02 23:54:00,
2013-08-02 19:59:00,73.5,71.4,29.99,ESE,106,0.0,0.0,93,0.00,,OVC055,0.01,VWS V14.01,2013-08-02 23:59:00,
2013-08-02 20:00:00,73.5,71.4,29.99,ESE,106,0.0,1.0,93,0.00,,OVC055,0.01,VWS V14.01,2013-08-03 00:00:00,
2013-08-02 20:04:00,73.3,71.5,29.99,ESE,106,0.0,0.0,94,0.00,,OVC055,0.01,VWS V14.01,2013-08-03 00:04:00,
2013-08-02 20:09:00,73.1,71.3,29.99,ESE,106,0.0,0.0,94,0.00,,OVC055,0.01,VWS V14.01,2013-08-03 00:09:00,
2013-08-02 20:14:00,72.9,71.4,29.99,ESE,106,0.0,0.0,95,0.00,,OVC055,0.01,VWS V14.01,2013-08-03 00:14:00,
2013-08-02 20:19:00,72.6,70.8,30.00,ESE,106,0.0,0.0,94,0.00,,OVC055,0.01,VWS V14.01,2013-08-03 00:19:00,
2013-08-02 20:24:00,72.4,70.6,30.00,ESE,106,0.0,1.0,94,0.00,,OVC055,0.01,VWS V14.01,2013-08-03 00:24:00,
2013-08-02 20:29:00,72.0,69.9,30.00,ESE,106,0.0,0.0,93,0.00,,OVC055,0.01,VWS V14.01,2013-08-03 00:29:00,
2013-08-02 20:30:00,72.0,69.9,30.00,ESE,106,0.0,1.0,93,0.00,,OVC055,0.01,VWS V14.01,2013-08-03 00:30:00,
2013-08-02 20:34:00,71.7,69.9,30.00,ESE,106,0.0,0.0,94,0.00,,OVC055,0.01,VWS V14.01,2013-08-03 00:34:00,
2013-08-02 20:39:00,71.5,69.7,30.00,ESE,106,0.0,1.0,94,0.00,,OVC055,0.01,VWS V14.01,2013-08-03 00:39:00,
2013-08-02 20:44:00,71.3,69.5,30.00,ESE,106,0.0,1.0,94,0.00,,OVC055,0.01,VWS V14.01,2013-08-03 00:44:00,
2013-08-02 20:49:00,71.3,69.5,30.00,ESE,106,0.0,1.0,94,0.00,,OVC055,0.01,VWS V14.01,2013-08-03 00:49:00,
2013-08-02 20:54:00,71.1,69.6,30.00,ESE,106,0.0,1.0,95,0.00,,OVC055,0.01,VWS V14.01,2013-08-03 00:54:00,
2013-08-02 20:59:00,70.8,69.6,30.01,ESE,106,0.0,0.0,96,0.00,,OVC055,0.01,VWS V14.01,2013-08-03 00:59:00,
2013-08-02 21:00:00,70.8,69.6,30.00,ESE,106,0.0,1.0,96,0.00,,OVC055,0.01,VWS V14.01,2013-08-03 01:00:00,
2013-08-02 21:04:00,70.6,69.1,30.01,ESE,106,0.0,0.0,95,0.00,,OVC055,0.01,VWS V14.01,2013-08-03 01:04:00,
2013-08-02 21:09:00,70.3,69.1,30.01,ESE,106,0.0,0.0,96,0.00,,OVC055,0.01,VWS V14.01,2013-08-03 01:09:00,
2013-08-02 21:14:00,70.3,69.1,30.01,ESE,106,0.0,0.0,96,0.00,,OVC055,0.01,VWS V14.01,2013-08-03 01:14:00,
2013-08-02 21:19:00,70.1,68.9,30.01,ESE,106,0.0,0.0,96,0.00,,OVC055,0.01,VWS V14.01,2013-08-03 01:19:00,
2013-08-02 21:24:00,70.0,69.1,30.01,ESE,106,0.0,0.0,97,0.00,,OVC055,0.01,VWS V14.01,2013-08-03 01:24:00,
2013-08-02 21:29:00,69.9,69.0,30.01,ESE,106,0.0,0.0,97,0.00,,OVC055,0.01,VWS V14.01,2013-08-03 01:29:00,
2013-08-02 21:30:00,69.9,69.0,30.01,ESE,106,0.0,0.0,97,0.00,,OVC055,0.01,VWS V14.01,2013-08-03 01:30:00,
2013-08-02 21:34:00,69.8,68.9,30.01,ESE,106,0.0,0.0,97,0.00,,OVC055,0.01,VWS V14.01,2013-08-03 01:34:00,
2013-08-02 21:39:00,69.9,69.3,30.02,ESE,106,0.0,0.0,98,0.00,,OVC055,0.01,VWS V14.01,2013-08-03 01:39:00,
2013-08-02 21:44:00,69.9,69.3,30.01,ESE,106,0.0,0.0,98,0.00,,OVC055,0.01,VWS V14.01,2013-08-03 01:44:00,
2013-08-02 21:49:00,69.9,69.3,30.01,ESE,106,0.0,0.0,98,0.00,,OVC055,0.01,VWS V14.01,2013-08-03 01:49:00,
2013-08-02 21:54:00,69.9,69.3,30.02,ESE,106,0.0,0.0,98,0.00,,OVC055,0.01,VWS V14.01,2013-08-03 01:54:00,
2013-08-02 21:59:00,69.9,69.3,30.02,ESE,106,0.0,0.0,98,0.00,,OVC055,0.01,VWS V14.01,2013-08-03 01:59:00,
2013-08-02 22:00:00,69.9,69.3,30.02,ESE,106,0.0,0.0,98,0.00,,OVC055,0.01,VWS V14.01,2013-08-03 02:00:00,
2013-08-02 22:04:00,69.9,69.3,30.02,ESE,106,0.0,0.0,98,0.00,,OVC055,0.01,VWS V14.01,2013-08-03 02:04:00,
2013-08-02 22:09:00,69.8,69.5,30.02,ESE,106,0.0,0.0,99,0.00,,OVC055,0.01,VWS V14.01,2013-08-03 02:09:00,
2013-08-02 22:14:00,69.8,69.2,30.02,ESE,106,0.0,0.0,98,0.00,,OVC055,0.01,VWS V14.01,2013-08-03 02:14:00,
2013-08-02 22:19:00,69.7,69.1,30.02,ESE,106,0.0,0.0,98,0.00,,OVC055,0.01,VWS V14.01,2013-08-03 02:19:00,
2013-08-02 22:24:00,69.7,69.4,30.02,ESE,106,0.0,0.0,99,0.00,,OVC055,0.01,VWS V14.01,2013-08-03 02:24:00,
2013-08-02 22:29:00,69.6,69.0,30.02,ESE,106,0.0,0.0,98,0.00,,OVC055,0.01,VWS V14.01,2013-08-03 02:29:00,
2013-08-02 22:30:00,69.6,69.0,30.02,ESE,106,0.0,0.0,98,0.00,,OVC055,0.01,VWS V14.01,2013-08-03 02:30:00,
2013-08-02 22:34:00,69.4,69.1,30.02,ESE,106,0.0,0.0,99,0.00,,OVC055,0.01,VWS V14.01,2013-08-03 02:34:00,
2013-08-02 22:39:00,69.3,69.0,30.02,ESE,106,0.0,0.0,99,0.00,,OVC055,0.01,VWS V14.01,2013-08-03 02:39:00,
2013-08-02 22:44:00,69.2,68.9,30.02,ESE,106,0.0,0.0,99,0.00,,OVC055,0.01,VWS V14.01,2013-08-03 02:44:00,
2013-08-02 22:49:00,69.1,68.8,30.02,ESE,106,0.0,0.0,99,0.00,,OVC055,0.01,VWS V14.01,2013-08-03 02:49:00,
2013-08-02 22:53:00,69.1,68.8,30.02,ESE,106,0.0,0.0,99,0.00,,OVC055,0.01,VWS V14.01,2013-08-03 02:53:00,
2013-08-02 22:59:00,69.0,68.7,30.02,ESE,106,0.0,0.0,99,0.00,,OVC055,0.01,VWS V14.01,2013-08-03 02:59:00,
2013-08-02 23:00:00,69.0,68.7,30.02,ESE,106,0.0,0.0,99,0.00,,OVC055,0.01,VWS V14.01,2013-08-03 03:00:00,
2013-08-02 23:03:00,69.0,68.7,30.02,ESE,106,0.0,0.0,99,0.00,,OVC055,0.01,VWS V14.01,2013-08-03 03:03:00,
2013-08-02 23:08:00,68.9,68.6,30.02,ESE,106,0.0,0.0,99,0.00,,OVC055,0.01,VWS V14.01,2013-08-03 03:08:00,
2013-08-02 23:13:00,68.9,68.9,30.03,ESE,106,0.0,0.0,100,0.00,,OVC055,0.01,VWS V14.01,2013-08-03 03:13:00,
2013-08-02 23:18:00,68.9,68.9,30.03,ESE,106,0.0,0.0,100,0.00,,OVC055,0.01,VWS V14.01,2013-08-03 03:18:00,
2013-08-02 23:23:00,69.0,69.0,30.03,ESE,106,0.0,0.0,100,0.00,,OVC055,0.01,VWS V14.01,2013-08-03 03:23:00,
2013-08-02 23:28:00,69.0,69.0,30.03,ESE,106,0.0,0.0,100,0.00,,OVC055,0.01,VWS V14.01,2013-08-03 03:28:00,
2013-08-02 23:30:00,69.0,69.0,30.03,ESE,106,0.0,0.0,100,0.00,,OVC055,0.01,VWS V14.01,2013-08-03 03:30:00,
2013-08-02 23:33:00,69.0,69.0,30.04,ESE,106,0.0,0.0,100,0.00,,OVC055,0.01,VWS V14.01,2013-08-03 03:33:00,
2013-08-02 23:38:00,69.0,69.0,30.04,ESE,106,0.0,0.0,100,0.00,,OVC055,0.01,VWS V14.01,2013-08-03 03:38:00,
2013-08-02 23:43:00,69.0,69.0,30.03,ESE,106,0.0,0.0,100,0.00,,OVC055,0.01,VWS V14.01,2013-08-03 03:43:00,
2013-08-02 23:48:00,69.0,69.0,30.04,ESE,106,0.0,0.0,100,0.00,,OVC055,0.01,VWS V14.01,2013-08-03 03:48:00,
2013-08-02 23:53:00,69.0,69.0,30.04,ESE,106,0.0,0.0,100,0.00,,OVC055,0.01,VWS V14.01,2013-08-03 03:53:00,
2013-08-02 23:58:00,69.0,69.0,30.03,ESE,106,0.0,0.0,100,0.00,,OVC055,0.00,VWS V14.01,2013-08-03 03:58:00,